Hourly Weather Celow

Today, 19 June, Saturday

Time Temperature Precipitation Wind Pressure Humidity
00:00 +20°C° 0 mm 2 mps 739 mmHg 70%
01:00 +19°C° 0 mm 2 mps 739 mmHg 71%
02:00 +19°C° 0 mm 2 mps 738 mmHg 71%
03:00 +19°C° 0 mm 2 mps 738 mmHg 71%
04:00 +19°C° 0 mm 2 mps 738 mmHg 72%
05:00 +21°C° 0 mm 2 mps 738 mmHg 69%
06:00 +24°C° 0 mm 2 mps 738 mmHg 66%
07:00 +26°C° 0 mm 2 mps 739 mmHg 62%
08:00 +27°C° 0 mm 2 mps 739 mmHg 56%
09:00 +29°C° 0 mm 2 mps 739 mmHg 50%
10:00 +30°C° 0 mm 2 mps 739 mmHg 44%
11:00 +31°C° 0 mm 2 mps 738 mmHg 42%
12:00 +32°C° 0 mm 2 mps 738 mmHg 39%
13:00 +32°C° 0 mm 2 mps 738 mmHg 37%
14:00 +32°C° 0 mm 2 mps 738 mmHg 39%
15:00 +32°C° 0 mm 2 mps 737 mmHg 40%
16:00 +32°C° 0 mm 2 mps 737 mmHg 42%
17:00 +30°C° 0 mm 2 mps 737 mmHg 51%
18:00 +29°C° 0 mm 2 mps 737 mmHg 61%
19:00 +27°C° 0 mm 2 mps 736 mmHg 70%
20:00 +25°C° 0 mm 2 mps 737 mmHg 73%
21:00 +24°C° 0 mm 2 mps 737 mmHg 76%
22:00 +21°C° 0 mm 2 mps 737 mmHg 80%
23:00 +21°C° 0 mm 2 mps 737 mmHg 85%

Tomorrow, 20 June, Sunday

Time Temperature Precipitation Wind Pressure Humidity
00:00 +21°C° 0 mm 1 mps 737 mmHg 90%
01:00 +20°C° 0 mm 1 mps 737 mmHg 95%
02:00 +20°C° 0 mm 1 mps 736 mmHg 93%
03:00 +20°C° 0 mm 1 mps 736 mmHg 92%
04:00 +19°C° 0 mm 2 mps 736 mmHg 90%
05:00 +21°C° 0 mm 2 mps 736 mmHg 84%
06:00 +24°C° 0 mm 2 mps 736 mmHg 77%
07:00 +26°C° 0 mm 2 mps 736 mmHg 70%
08:00 +27°C° 0 mm 2 mps 736 mmHg 64%
09:00 +29°C° 0 mm 2 mps 736 mmHg 58%
10:00 +30°C° 0 mm 2 mps 736 mmHg 51%
11:00 +31°C° 0 mm 2 mps 736 mmHg 48%
12:00 +32°C° 0 mm 2 mps 735 mmHg 45%
13:00 +32°C° 0 mm 2 mps 735 mmHg 43%
14:00 +32°C° 0 mm 2 mps 735 mmHg 45%
15:00 +32°C° 0 mm 2 mps 735 mmHg 47%
16:00 +32°C° 0 mm 2 mps 734 mmHg 49%
17:00 +31°C° 0 mm 2 mps 734 mmHg 56%
18:00 +29°C° 0 mm 2 mps 734 mmHg 64%
19:00 +28°C° 0 mm 2 mps 734 mmHg 72%
20:00 +26°C° 0 mm 2 mps 733 mmHg 73%
21:00 +25°C° 0 mm 2 mps 733 mmHg 74%
22:00 +24°C° 0 mm 2 mps 733 mmHg 76%
23:00 +23°C° 0 mm 2 mps 733 mmHg 77%

Day after tomorrow, 21 June, Monday

Time Temperature Precipitation Wind Pressure Humidity
00:00 +23°C° 0 mm 2 mps 733 mmHg 77%
01:00 +23°C° 0 mm 2 mps 732 mmHg 78%
02:00 +21°C° 0 mm 2 mps 732 mmHg 79%
03:00 +21°C° 0 mm 2 mps 732 mmHg 80%
04:00 +21°C° 0 mm 2 mps 731 mmHg 81%
05:00 +23°C° 0 mm 2 mps 731 mmHg 76%
06:00 +25°C° 0 mm 2 mps 732 mmHg 71%
07:00 +27°C° 0 mm 2 mps 732 mmHg 66%
08:00 +28°C° 0 mm 2 mps 732 mmHg 62%
09:00 +29°C° 0 mm 2 mps 732 mmHg 58%
10:00 +31°C° 0 mm 2 mps 732 mmHg 54%
11:00 +30°C° 0.6 mm 2 mps 732 mmHg 57%
12:00 +30°C° 0.6 mm 2 mps 732 mmHg 61%
13:00 +29°C° 0.6 mm 3 mps 732 mmHg 65%
14:00 +28°C° 2.9 mm 3 mps 732 mmHg 69%
15:00 +27°C° 2.9 mm 3 mps 732 mmHg 74%
16:00 +25°C° 2.9 mm 3 mps 733 mmHg 79%
17:00 +24°C° 1.6 mm 2 mps 733 mmHg 84%
18:00 +23°C° 1.6 mm 2 mps 733 mmHg 89%
19:00 +21°C° 1.6 mm 1 mps 733 mmHg 95%
20:00 +21°C° 0 mm 1 mps 733 mmHg 94%
21:00 +20°C° 0 mm 1 mps 734 mmHg 94%
22:00 +20°C° 0 mm 1 mps 734 mmHg 93%
23:00 +19°C° 0 mm 1 mps 734 mmHg 93%

22 June, Tuesday

Time Temperature Precipitation Wind Pressure Humidity
00:00 +19°C° 0 mm 1 mps 734 mmHg 94%
01:00 +19°C° 0 mm 1 mps 734 mmHg 94%
02:00 +19°C° 0 mm 1 mps 734 mmHg 94%
03:00 +18°C° 0 mm 1 mps 734 mmHg 94%
04:00 +18°C° 0 mm 1 mps 734 mmHg 95%
05:00 +19°C° 0 mm 1 mps 735 mmHg 91%
06:00 +19°C° 0 mm 2 mps 735 mmHg 87%
07:00 +20°C° 0 mm 2 mps 736 mmHg 83%
08:00 +21°C° 0 mm 2 mps 736 mmHg 77%
09:00 +23°C° 0 mm 2 mps 736 mmHg 71%
10:00 +25°C° 0 mm 2 mps 736 mmHg 65%
11:00 +26°C° 0 mm 3 mps 736 mmHg 63%
12:00 +26°C° 0 mm 3 mps 736 mmHg 61%
13:00 +27°C° 0 mm 3 mps 736 mmHg 59%
14:00 +27°C° 0 mm 3 mps 736 mmHg 59%
15:00 +27°C° 0 mm 3 mps 736 mmHg 59%
16:00 +28°C° 0 mm 3 mps 736 mmHg 59%
17:00 +27°C° 0 mm 3 mps 736 mmHg 65%
18:00 +26°C° 0 mm 2 mps 736 mmHg 71%
19:00 +25°C° 0 mm 2 mps 736 mmHg 77%
20:00 +23°C° 0 mm 2 mps 736 mmHg 80%
21:00 +22°C° 0 mm 1 mps 736 mmHg 84%
22:00 +21°C° 0 mm 1 mps 736 mmHg 87%
23:00 +21°C° 0.2 mm 1 mps 736 mmHg 88%

23 June, Wednesday

Time Temperature Precipitation Wind Pressure Humidity
00:00 +20°C° 0.2 mm 1 mps 736 mmHg 89%
01:00 +20°C° 0.2 mm 1 mps 736 mmHg 90%
02:00 +20°C° 1.9 mm 1 mps 736 mmHg 93%
03:00 +20°C° 1.9 mm 1 mps 736 mmHg 95%
04:00 +18°C° 1.9 mm 2 mps 737 mmHg 97%
05:00 +18°C° 2.9 mm 2 mps 737 mmHg 97%
06:00 +19°C° 2.9 mm 2 mps 737 mmHg 97%
07:00 +19°C° 2.9 mm 2 mps 737 mmHg 97%
08:00 +18°C° 0.1 mm 3 mps 738 mmHg 97%
09:00 +18°C° 0.1 mm 3 mps 738 mmHg 96%
10:00 +18°C° 0.1 mm 3 mps 738 mmHg 96%
11:00 +18°C° 0.1 mm 3 mps 739 mmHg 94%
12:00 +18°C° 0.1 mm 3 mps 739 mmHg 92%
13:00 +18°C° 0.1 mm 3 mps 739 mmHg 90%
14:00 +18°C° 0 mm 3 mps 740 mmHg 87%
15:00 +19°C° 0 mm 3 mps 740 mmHg 85%
16:00 +19°C° 0 mm 3 mps 740 mmHg 82%
17:00 +19°C° 0 mm 3 mps 740 mmHg 84%
18:00 +19°C° 0 mm 3 mps 740 mmHg 86%
19:00 +19°C° 0 mm 3 mps 740 mmHg 88%
20:00 +18°C° 0 mm 2 mps 740 mmHg 91%
21:00 +17°C° 0 mm 2 mps 740 mmHg 94%
22:00 +16°C° 0 mm 1 mps 740 mmHg 97%
23:00 +15°C° 0 mm 1 mps 740 mmHg 97%

24 June, Thursday

Time Temperature Precipitation Wind Pressure Humidity
00:00 +15°C° 0 mm 1 mps 740 mmHg 97%
01:00 +14°C° 0 mm 1 mps 740 mmHg 98%
02:00 +14°C° 0 mm 1 mps 739 mmHg 98%
03:00 +14°C° 0 mm 1 mps 739 mmHg 98%
04:00 +14°C° 0 mm 1 mps 739 mmHg 98%
05:00 +15°C° 0.3 mm 2 mps 739 mmHg 96%
06:00 +15°C° 0.3 mm 2 mps 739 mmHg 95%
07:00 +16°C° 0.3 mm 3 mps 739 mmHg 94%
08:00 +17°C° 1 mm 3 mps 739 mmHg 93%
09:00 +18°C° 1 mm 3 mps 738 mmHg 92%
10:00 +18°C° 1 mm 3 mps 738 mmHg 92%
11:00 +19°C° 1.6 mm 3 mps 738 mmHg 91%
12:00 +19°C° 1.6 mm 2 mps 738 mmHg 91%
13:00 +19°C° 1.6 mm 2 mps 737 mmHg 91%
14:00 +20°C° 1.9 mm 1 mps 737 mmHg 93%
15:00 +20°C° 1.9 mm 1 mps 737 mmHg 94%
16:00 +20°C° 1.9 mm 1 mps 737 mmHg 96%
17:00 +20°C° 0.4 mm 1 mps 737 mmHg 95%
18:00 +20°C° 0.4 mm 1 mps 737 mmHg 95%
19:00 +20°C° 0.4 mm 1 mps 737 mmHg 95%
20:00 +19°C° 0 mm 1 mps 737 mmHg 96%
21:00 +19°C° 0 mm 1 mps 737 mmHg 96%
22:00 +17°C° 0 mm 2 mps 737 mmHg 96%
23:00 +16°C° 0 mm 2 mps 736 mmHg 96%
Show more

We Need Your Consent

Meteoprog and our Service Providers may store and access personal data such as cookies, device identifiers or other similar technologies on your device and process such data to personalise content and ads, as well as provide social media features and to analyse the traffic.

  • Store and/or access information on your device

    Cookies, device identifiers or other information can be stored or accessed on your device for the purposes indicated above.

  • Personalised ads and content, ad and content measurement, audience insights, and products development

    Ads and content can be personalised based on a profile. More data can be added to better personalise ads and content. Ad and content performance can be measured. Insights about the audience who saw the ads and content can be derived. Such data can be used to develop or improve user’s experience, systems and software.

By clicking ‘I Agree’ you will allow the use of indicated cookies, device identifiers, web beacons or other similar technologies. Your settings can be changed in the browser on your device.

For certain purposes, legitimate interests may be relied on, rather than consent. You can read more about this in our Privacy and Cookie Policy.